| time (UTC) | temp F | wind direction | speed MPH | gust MPH | rain 1hr in | rain 24hr in | rain mn in | humidity % | barometer mb |
| 20260905065048 | 83 | 195 | 3.0 | 5.0 | 0.00 | 0.00 | 0.00 | 63 | 1007.1 |
| 20260905064050 | 83 | 182 | 2.0 | 5.0 | 0.00 | 0.00 | 0.00 | 63 | 1006.9 |
| 20260905063049 | 84 | 195 | 2.0 | 3.0 | 0.00 | 0.00 | 0.00 | 63 | 1006.9 |
| 20260905062049 | 84 | 190 | 2.0 | 3.0 | 0.00 | 0.00 | 0.00 | 63 | 1006.7 |
| 20260905061050 | 84 | 195 | 2.0 | 3.0 | 0.00 | 0.00 | 0.00 | 62 | 1006.8 |
| 20260905060049 | 84 | 190 | 2.0 | 3.0 | 0.00 | 0.00 | 0.00 | 62 | 1006.8 |
| 20260905055050 | 84 | 166 | 3.0 | 6.0 | 0.00 | 0.00 | 0.00 | 62 | 1006.6 |
| 20260905054049 | 84 | 199 | 2.0 | 3.0 | 0.00 | 0.00 | 0.00 | 62 | 1006.7 |
| 20260905053048 | 85 | 190 | 3.0 | 3.0 | 0.00 | 0.00 | 0.00 | 62 | 1006.8 |
| 20260905052049 | 85 | 187 | 1.0 | 3.0 | 0.00 | 0.00 | 0.00 | 62 | 1006.9 |
| 20260905051050 | 85 | 206 | 1.0 | 2.0 | 0.00 | 0.00 | 0.00 | 61 | 1007.0 |
| 20260905050049 | 86 | 172 | 2.0 | 2.0 | 0.00 | 0.00 | 0.00 | 60 | 1007.2 |
| 20260905045050 | 86 | 185 | 2.0 | 5.0 | 0.00 | 0.00 | 0.00 | 60 | 1007.2 |
| 20260905044050 | 86 | 179 | 2.0 | 3.0 | 0.00 | 0.00 | 0.00 | 60 | 1007.2 |
| 20260905043049 | 86 | 199 | 1.0 | 3.0 | 0.00 | 0.00 | 0.00 | 59 | 1007.3 |
| 20260905042049 | 86 | 184 | 1.0 | 2.0 | 0.00 | 0.00 | 0.00 | 59 | 1007.2 |
| 20260905041049 | 86 | 188 | 1.0 | 2.0 | 0.00 | 0.00 | 0.00 | 59 | 1007.2 |
| 20260905040050 | 87 | 168 | 1.0 | 2.0 | 0.00 | 0.00 | 0.00 | 59 | 1007.3 |
| 20260905035050 | 87 | 205 | 1.0 | 1.0 | 0.00 | 0.00 | 0.00 | 58 | 1007.4 |
| 20260905034049 | 87 | 218 | 0.0 | 2.0 | 0.00 | 0.00 | 0.00 | 58 | 1007.4 |
| 20260905033050 | 87 | 174 | 1.0 | 3.0 | 0.00 | 0.00 | 0.00 | 58 | 1007.4 |
| 20260905032049 | 87 | 164 | 1.0 | 2.0 | 0.00 | 0.00 | 0.00 | 57 | 1007.4 |
| 20260905031050 | 87 | 177 | 1.0 | 3.0 | 0.00 | 0.00 | 0.00 | 57 | 1007.3 |
| 20260905030049 | 88 | 166 | 1.0 | 1.0 | 0.00 | 0.00 | 0.00 | 56 | 1007.4 |
| 20260905025049 | 88 | 215 | 0.0 | 1.0 | 0.00 | 0.00 | 0.00 | 56 | 1007.3 |
| 20260905024050 | 88 | 94 | 0.0 | 1.0 | 0.00 | 0.00 | 0.00 | 55 | 1006.9 |
| 20260905023050 | 89 | 178 | 1.0 | 2.0 | 0.00 | 0.00 | 0.00 | 55 | 1006.8 |
| 20260905022049 | 89 | 189 | 0.0 | 2.0 | 0.00 | 0.00 | 0.00 | 54 | 1006.5 |
| 20260905021049 | 89 | 167 | 0.0 | 2.0 | 0.00 | 0.00 | 0.00 | 54 | 1006.3 |
| 20260905020050 | 90 | 190 | 0.0 | 1.0 | 0.00 | 0.00 | 0.00 | 53 | 1006.2 |
| 20260905015049 | 90 | 197 | 0.0 | 1.0 | 0.00 | 0.00 | 0.00 | 52 | 1006.0 |
| 20260905014049 | 91 | 212 | 0.0 | 1.0 | 0.00 | 0.00 | 0.00 | 52 | 1005.8 |
| 20260905013049 | 92 | 219 | 1.0 | 1.0 | 0.00 | 0.00 | 0.00 | 51 | 1005.8 |
| 20260905012049 | 92 | 168 | 1.0 | 2.0 | 0.00 | 0.00 | 0.00 | 50 | 1005.8 |
| 20260905011050 | 93 | 195 | 1.0 | 3.0 | 0.00 | 0.00 | 0.00 | 49 | 1005.7 |
| 20260905010049 | 93 | 201 | 1.0 | 1.0 | 0.00 | 0.00 | 0.00 | 48 | 1005.8 |
| 20260905005050 | 94 | 190 | 2.0 | 3.0 | 0.00 | 0.00 | 0.00 | 47 | 1005.7 |
| 20260905004049 | 95 | 191 | 2.0 | 3.0 | 0.00 | 0.00 | 0.00 | 47 | 1005.7 |
| 20260905003048 | 96 | 157 | 5.0 | 7.0 | 0.00 | 0.00 | 0.00 | 46 | 1005.5 |
| 20260905002049 | 96 | 193 | 2.0 | 2.0 | 0.00 | 0.00 | 0.00 | 45 | 1005.6 |
| 20260905001049 | 96 | 166 | 3.0 | 6.0 | 0.00 | 0.00 | 0.00 | 45 | 1005.6 |
| 20260905000050 | 97 | 178 | 3.0 | 6.0 | 0.00 | 0.00 | 0.00 | 45 | 1005.6 |
| 20260904235050 | 97 | 223 | 2.0 | 5.0 | 0.00 | 0.00 | 0.00 | 45 | 1005.5 |
| 20260904234049 | 97 | 190 | 3.0 | 5.0 | 0.00 | 0.00 | 0.00 | 44 | 1005.4 |
| 20260904232049 | 97 | 179 | 2.0 | 5.0 | 0.00 | 0.00 | 0.00 | 45 | 1005.4 |
| 20260904231050 | 97 | 172 | 7.0 | 10.0 | 0.00 | 0.00 | 0.00 | 44 | 1005.4 |
| 20260904230049 | 98 | 184 | 6.0 | 12.0 | 0.00 | 0.00 | 0.00 | 44 | 1005.4 |
| 20260904225050 | 98 | 173 | 0.0 | 1.0 | 0.00 | 0.00 | 0.00 | 45 | 1005.2 |
| 20260904224049 | 98 | 201 | 2.0 | 3.0 | 0.00 | 0.00 | 0.00 | 45 | 1005.3 |
| 20260904223048 | 98 | 187 | 5.0 | 10.0 | 0.00 | 0.00 | 0.00 | 44 | 1005.3 |
| 20260904222048 | 98 | 225 | 5.0 | 6.0 | 0.00 | 0.00 | 0.00 | 44 | 1005.3 |
| 20260904221049 | 98 | 174 | 5.0 | 7.0 | 0.00 | 0.00 | 0.00 | 44 | 1005.3 |
| 20260904220048 | 98 | 216 | 5.0 | 8.0 | 0.00 | 0.00 | 0.00 | 44 | 1005.3 |
| 20260904215049 | 98 | 192 | 5.0 | 6.0 | 0.00 | 0.00 | 0.00 | 45 | 1005.4 |
| 20260904214048 | 98 | 245 | 1.0 | 2.0 | 0.00 | 0.00 | 0.00 | 44 | 1005.4 |
| 20260904213050 | 98 | 187 | 1.0 | 10.0 | 0.00 | 0.00 | 0.00 | 44 | 1005.5 |
| 20260904212048 | 98 | 176 | 6.0 | 10.0 | 0.00 | 0.00 | 0.00 | 45 | 1005.5 |
| 20260904211050 | 98 | 164 | 5.0 | 5.0 | 0.00 | 0.00 | 0.00 | 45 | 1005.5 |
| 20260904210049 | 98 | 189 | 8.0 | 13.0 | 0.00 | 0.00 | 0.00 | 45 | 1005.7 |
| 20260904205050 | 98 | 213 | 3.0 | 7.0 | 0.00 | 0.00 | 0.00 | 46 | 1005.6 |
| 20260904204049 | 98 | 189 | 2.0 | 5.0 | 0.00 | 0.00 | 0.00 | 46 | 1005.9 |
| 20260904203048 | 98 | 204 | 2.0 | 13.0 | 0.00 | 0.00 | 0.00 | 45 | 1006.0 |
| 20260904202048 | 98 | 176 | 7.0 | 12.0 | 0.00 | 0.00 | 0.00 | 46 | 1006.0 |
| 20260904201050 | 98 | 203 | 2.0 | 3.0 | 0.00 | 0.00 | 0.00 | 45 | 1006.0 |
| 20260904200048 | 97 | 186 | 6.0 | 10.0 | 0.00 | 0.00 | 0.00 | 46 | 1006.0 |
| 20260904195049 | 97 | 206 | 1.0 | 3.0 | 0.00 | 0.00 | 0.00 | 47 | 1006.0 |
| 20260904194048 | 97 | 207 | 2.0 | 9.0 | 0.00 | 0.00 | 0.00 | 47 | 1006.1 |
| 20260904193048 | 96 | 240 | 2.0 | 3.0 | 0.00 | 0.00 | 0.00 | 47 | 1006.2 |
| 20260904192049 | 96 | 192 | 7.0 | 9.0 | 0.00 | 0.00 | 0.00 | 48 | 1006.2 |
| 20260904191048 | 96 | 190 | 6.0 | 9.0 | 0.00 | 0.00 | 0.00 | 48 | 1006.5 |
| 20260904190048 | 96 | 248 | 1.0 | 3.0 | 0.00 | 0.00 | 0.00 | 49 | 1006.5 |
| 20260904185048 | 96 | 193 | 1.0 | 5.0 | 0.00 | 0.00 | 0.00 | 50 | 1006.5 |
| 20260904184049 | 95 | 203 | 5.0 | 7.0 | 0.00 | 0.00 | 0.00 | 50 | 1006.7 |
| 20260904183049 | 95 | 191 | 10.0 | 14.0 | 0.00 | 0.00 | 0.00 | 50 | 1006.9 |
| 20260904182049 | 94 | 278 | 1.0 | 3.0 | 0.00 | 0.00 | 0.00 | 52 | 1007.1 |
| 20260904181048 | 94 | 171 | 6.0 | 10.0 | 0.00 | 0.00 | 0.00 | 52 | 1007.1 |
| 20260904180049 | 94 | 173 | 6.0 | 10.0 | 0.00 | 0.00 | 0.00 | 52 | 1007.1 |
| 20260904175049 | 94 | 243 | 1.0 | 3.0 | 0.00 | 0.00 | 0.00 | 52 | 1007.1 |
| 20260904174049 | 93 | 231 | 2.0 | 3.0 | 0.00 | 0.00 | 0.00 | 54 | 1007.3 |
| 20260904173048 | 93 | 177 | 2.0 | 12.0 | 0.00 | 0.00 | 0.00 | 54 | 1007.5 |
| 20260904172049 | 92 | 187 | 3.0 | 5.0 | 0.00 | 0.00 | 0.00 | 55 | 1007.7 |
| 20260904171050 | 91 | 214 | 3.0 | 8.0 | 0.00 | 0.00 | 0.00 | 57 | 1007.7 |
| 20260904170049 | 91 | 195 | 5.0 | 12.0 | 0.00 | 0.00 | 0.00 | 56 | 1007.8 |
| 20260904165048 | 91 | 194 | 5.0 | 7.0 | 0.00 | 0.00 | 0.00 | 58 | 1007.8 |
| 20260904164049 | 90 | 173 | 3.0 | 10.0 | 0.00 | 0.00 | 0.00 | 57 | 1007.9 |
| 20260904163049 | 90 | 183 | 5.0 | 5.0 | 0.00 | 0.00 | 0.00 | 57 | 1008.0 |
| 20260904162049 | 89 | 187 | 7.0 | 7.0 | 0.00 | 0.00 | 0.00 | 58 | 1008.0 |
| 20260904161048 | 88 | 210 | 3.0 | 6.0 | 0.00 | 0.00 | 0.00 | 60 | 1007.9 |
| 20260904160049 | 87 | 193 | 0.0 | 7.0 | 0.00 | 0.00 | 0.00 | 62 | 1007.9 |
| 20260904155048 | 87 | 184 | 3.0 | 9.0 | 0.00 | 0.00 | 0.00 | 63 | 1008.0 |
| 20260904154049 | 86 | 223 | 2.0 | 2.0 | 0.00 | 0.00 | 0.00 | 64 | 1007.9 |
| 20260904153048 | 85 | 169 | 5.0 | 7.0 | 0.00 | 0.00 | 0.00 | 65 | 1008.1 |
| 20260904152049 | 84 | 279 | 0.0 | 2.0 | 0.00 | 0.00 | 0.00 | 67 | 1008.3 |
| 20260904151048 | 83 | 254 | 1.0 | 1.0 | 0.00 | 0.00 | 0.00 | 68 | 1008.4 |
| 20260904150049 | 83 | 270 | 1.0 | 1.0 | 0.00 | 0.00 | 0.00 | 69 | 1008.4 |
| 20260904145048 | 82 | 268 | 1.0 | 3.0 | 0.00 | 0.00 | 0.00 | 70 | 1008.5 |
| 20260904144049 | 82 | 190 | 5.0 | 12.0 | 0.00 | 0.00 | 0.00 | 71 | 1008.3 |
| 20260904143050 | 81 | 212 | 2.0 | 5.0 | 0.00 | 0.00 | 0.00 | 72 | 1008.5 |
| 20260904142050 | 80 | 281 | 1.0 | 2.0 | 0.00 | 0.00 | 0.00 | 73 | 1008.6 |
| 20260904141050 | 80 | 183 | 3.0 | 7.0 | 0.00 | 0.00 | 0.00 | 74 | 1008.6 |
| 20260904140050 | 79 | 189 | 5.0 | 6.0 | 0.00 | 0.00 | 0.00 | 74 | 1008.4 |
| 20260904135051 | 78 | 222 | 5.0 | 7.0 | 0.00 | 0.00 | 0.00 | 76 | 1008.4 |
| 20260904134051 | 78 | 2 | 3.0 | 6.0 | 0.00 | 0.00 | 0.00 | 78 | 1008.3 |
| 20260904133050 | 77 | 191 | 3.0 | 3.0 | 0.00 | 0.00 | 0.00 | 79 | 1008.2 |
| 20260904132051 | 76 | 181 | 3.0 | 3.0 | 0.00 | 0.00 | 0.00 | 80 | 1008.2 |
| 20260904131050 | 76 | 179 | 3.0 | 3.0 | 0.00 | 0.00 | 0.00 | 81 | 1008.1 |
| 20260904130051 | 75 | 184 | 2.0 | 6.0 | 0.00 | 0.00 | 0.00 | 82 | 1008.0 |
| 20260904125050 | 75 | 176 | 3.0 | 5.0 | 0.00 | 0.00 | 0.00 | 82 | 1007.9 |
| 20260904124050 | 75 | 192 | 2.0 | 6.0 | 0.00 | 0.00 | 0.00 | 82 | 1007.8 |
| 20260904123051 | 75 | 185 | 2.0 | 3.0 | 0.00 | 0.00 | 0.00 | 82 | 1007.5 |
| 20260904122049 | 75 | 183 | 2.0 | 6.0 | 0.00 | 0.00 | 0.00 | 82 | 1007.5 |
| 20260904121050 | 75 | 187 | 2.0 | 3.0 | 0.00 | 0.00 | 0.00 | 82 | 1007.5 |
| 20260904120051 | 75 | 192 | 2.0 | 3.0 | 0.00 | 0.00 | 0.00 | 81 | 1007.4 |
| 20260904115050 | 75 | 185 | 1.0 | 2.0 | 0.00 | 0.00 | 0.00 | 81 | 1007.4 |
| 20260904114051 | 75 | 181 | 2.0 | 3.0 | 0.00 | 0.00 | 0.00 | 81 | 1007.4 |
| 20260904113050 | 76 | 198 | 2.0 | 3.0 | 0.00 | 0.00 | 0.00 | 80 | 1007.3 |
| 20260904112050 | 76 | 177 | 1.0 | 2.0 | 0.00 | 0.00 | 0.00 | 80 | 1007.3 |
| 20260904111051 | 76 | 171 | 1.0 | 2.0 | 0.00 | 0.00 | 0.00 | 79 | 1007.3 |
| 20260904110050 | 77 | 192 | 1.0 | 5.0 | 0.00 | 0.00 | 0.00 | 79 | 1007.0 |
| 20260904105051 | 77 | 192 | 1.0 | 3.0 | 0.00 | 0.00 | 0.00 | 78 | 1007.1 |
| 20260904104051 | 77 | 186 | 1.0 | 3.0 | 0.00 | 0.00 | 0.00 | 78 | 1007.2 |
| 20260904103050 | 77 | 185 | 1.0 | 2.0 | 0.00 | 0.00 | 0.00 | 78 | 1007.2 |
| 20260904102049 | 78 | 188 | 1.0 | 1.0 | 0.00 | 0.00 | 0.00 | 77 | 1007.0 |
| 20260904101050 | 78 | 171 | 2.0 | 3.0 | 0.00 | 0.00 | 0.00 | 77 | 1006.9 |
| 20260904100050 | 78 | 200 | 3.0 | 5.0 | 0.00 | 0.00 | 0.00 | 76 | 1006.9 |
| 20260904095051 | 78 | 189 | 2.0 | 3.0 | 0.00 | 0.00 | 0.00 | 76 | 1006.9 |
| 20260904094050 | 78 | 186 | 2.0 | 3.0 | 0.00 | 0.00 | 0.00 | 75 | 1006.8 |
| 20260904093049 | 79 | 193 | 2.0 | 3.0 | 0.00 | 0.00 | 0.00 | 75 | 1006.7 |
| 20260904092050 | 79 | 219 | 1.0 | 1.0 | 0.00 | 0.00 | 0.00 | 75 | 1006.7 |
| 20260904091049 | 79 | 195 | 2.0 | 5.0 | 0.00 | 0.00 | 0.00 | 74 | 1006.6 |
| 20260904090050 | 79 | 206 | 1.0 | 2.0 | 0.00 | 0.00 | 0.00 | 74 | 1006.6 |
| 20260904085051 | 79 | 194 | 1.0 | 3.0 | 0.00 | 0.00 | 0.00 | 73 | 1006.6 |
| 20260904084050 | 79 | 190 | 3.0 | 6.0 | 0.00 | 0.00 | 0.00 | 73 | 1006.6 |
| 20260904083049 | 79 | 195 | 2.0 | 5.0 | 0.00 | 0.00 | 0.00 | 73 | 1006.7 |
| 20260904082050 | 79 | 206 | 1.0 | 3.0 | 0.00 | 0.00 | 0.00 | 73 | 1006.7 |
| 20260904081051 | 80 | 205 | 1.0 | 3.0 | 0.00 | 0.00 | 0.00 | 72 | 1006.7 |
| 20260904080051 | 80 | 217 | 0.0 | 1.0 | 0.00 | 0.00 | 0.00 | 71 | 1006.6 |
| 20260904075050 | 80 | 217 | 1.0 | 1.0 | 0.00 | 0.00 | 0.00 | 70 | 1006.6 |
| 20260904074049 | 81 | 182 | 2.0 | 3.0 | 0.00 | 0.00 | 0.00 | 70 | 1006.6 |
| 20260904073051 | 81 | 207 | 0.0 | 1.0 | 0.00 | 0.00 | 0.00 | 70 | 1006.6 |
| 20260904072049 | 81 | 195 | 1.0 | 1.0 | 0.00 | 0.00 | 0.00 | 69 | 1006.7 |
| 20260904071051 | 81 | 205 | 2.0 | 3.0 | 0.00 | 0.00 | 0.00 | 68 | 1006.6 |
| 20260904070050 | 82 | 189 | 1.0 | 1.0 | 0.00 | 0.00 | 0.00 | 68 | 1006.7 |